EW1620 Weather Reports


Display with metric or nautical units.
time (UTC)temp
F
wind
direction
speed
MPH
gust
MPH
rain 1hr
in
rain 24hr
in
rain mn
in
humidity
%
barometer
mb
20260906092515 57 273 1.0 4.0 0.00 0.00 0.00 71 1022.8
20260906092020 57 255 2.0 7.0 0.00 0.00 0.00 70 1022.8
20260906091013 57 271 2.0 7.0 0.00 0.00 0.00 70 1022.6
20260906090512 57 229 1.0 4.0 0.00 0.00 0.00 70 1022.6
20260906090032 58 247 1.0 6.0 0.00 0.00 0.00 69 1022.5
20260906085511 58 265 2.0 6.0 0.00 0.00 0.00 69 1022.4
20260906085010 58 236 1.0 7.0 0.00 0.00 0.00 69 1022.4
20260906084512 58 263 2.0 7.0 0.00 0.00 0.00 69 1022.4
20260906084009 58 286 2.0 6.0 0.00 0.00 0.00 69 1022.3
20260906083509 58 257 2.0 8.0 0.00 0.00 0.00 68 1022.2
20260906083009 58 193 2.0 8.0 0.00 0.00 0.00 68 1022.2
20260906082510 58 216 1.0 4.0 0.00 0.00 0.00 68 1022.2
20260906082012 58 219 1.0 4.0 0.00 0.00 0.00 68 1022.2
20260906081011 58 209 1.0 3.0 0.00 0.00 0.00 67 1022.0
20260906080512 58 207 1.0 4.0 0.00 0.00 0.00 67 1022.0
20260906080011 58 201 0.0 6.0 0.00 0.00 0.00 67 1021.9
20260906075510 59 239 2.0 6.0 0.00 0.00 0.00 67 1021.9
20260906075010 59 256 1.0 8.0 0.00 0.00 0.00 67 1021.9
20260906074510 59 255 3.0 8.0 0.00 0.00 0.00 67 1021.9
20260906074009 59 237 0.0 9.0 0.00 0.00 0.00 67 1021.8
20260906073509 59 236 2.0 10.0 0.00 0.00 0.00 66 1021.7
20260906073008 59 279 2.0 8.0 0.00 0.00 0.00 66 1021.6
20260906072508 59 259 0.0 8.0 0.00 0.00 0.00 66 1021.6
20260906072012 59 251 3.0 11.0 0.00 0.00 0.00 67 1021.6
20260906071010 59 215 4.0 11.0 0.00 0.00 0.00 66 1021.6
20260906070510 59 265 3.0 10.0 0.00 0.00 0.00 66 1021.6
20260906070006 60 293 2.0 10.0 0.00 0.01 0.00 66 1021.6
20260906065510 60 259 4.0 8.0 0.00 0.01 0.00 66 1021.5
20260906065006 60 250 2.0 8.0 0.00 0.01 0.00 66 1021.4
20260906064506 60 242 2.0 10.0 0.00 0.01 0.00 66 1021.3
20260906064006 60 267 5.0 11.0 0.00 0.01 0.00 66 1021.3
20260906063506 60 262 3.0 11.0 0.00 0.01 0.00 65 1021.2
20260906063006 61 271 4.0 11.0 0.00 0.01 0.00 64 1021.1
20260906062505 61 283 4.0 8.0 0.00 0.01 0.00 65 1021.1
20260906062006 62 280 4.0 8.0 0.00 0.01 0.00 63 1021.0
20260906061008 62 227 4.0 10.0 0.00 0.01 0.00 63 1021.0
20260906060508 62 251 2.0 10.0 0.00 0.01 0.00 63 1021.0
20260906060008 62 229 2.0 11.0 0.00 0.03 0.00 62 1021.0
20260906055512 63 257 4.0 11.0 0.00 0.03 0.00 61 1021.1
20260906055008 63 233 3.0 9.0 0.00 0.03 0.00 60 1021.0
20260906054507 64 257 4.0 10.0 0.00 0.03 0.00 59 1021.0
20260906054007 64 268 3.0 10.0 0.00 0.03 0.00 60 1020.9
20260906053507 65 190 3.0 7.0 0.00 0.03 0.00 60 1020.9
20260906053008 65 245 3.0 11.0 0.00 0.03 0.00 59 1020.9
20260906052507 65 238 5.0 12.0 0.00 0.03 0.00 58 1020.8
20260906052008 65 269 4.0 9.0 0.00 0.03 0.00 60 1020.8
20260906051005 65 215 3.0 10.0 0.00 0.03 0.00 60 1020.8
20260906050506 65 277 4.0 12.0 0.00 0.03 0.00 61 1020.7
20260906050004 65 254 6.0 12.0 0.00 0.03 0.00 61 1020.7
20260906045502 64 209 3.0 8.0 0.00 0.03 0.00 62 1020.6
20260906045005 64 236 2.0 8.0 0.00 0.03 0.00 63 1020.5
20260906044501 64 242 4.0 8.0 0.00 0.03 0.00 64 1020.5
20260906044103 63 254 3.0 8.0 0.00 0.03 0.00 63 1020.5
20260906043600 63 253 3.0 7.0 0.00 0.03 0.00 63 1020.5
20260906043103 63 227 3.0 7.0 0.00 0.03 0.00 63 1020.5
20260906042559 63 244 2.0 7.0 0.00 0.03 0.00 63 1020.6
20260906042058 63 258 3.0 7.0 0.00 0.03 0.00 65 1020.6
20260906041056 62 271 0.0 3.0 0.00 0.03 0.00 64 1020.6
20260906040556 62 291 0.0 6.0 0.00 0.03 0.00 64 1020.7
20260906040055 62 269 2.0 9.0 0.00 0.03 0.00 64 1020.7
20260906035554 62 249 3.0 9.0 0.00 0.03 0.00 64 1020.7
20260906035054 62 299 0.0 5.0 0.00 0.03 0.00 65 1020.7
20260906034617 62 286 3.0 6.0 0.00 0.03 0.00 65 1020.7
20260906034053 62 248 0.0 3.0 0.00 0.03 0.00 66 1020.7
20260906033553 62 202 1.0 4.0 0.00 0.03 0.00 65 1020.7
20260906033054 62 280 2.0 5.0 0.00 0.03 0.00 65 1020.6
20260906032552 62 257 2.0 5.0 0.00 0.03 0.00 65 1020.6
20260906032052 62 229 2.0 5.0 0.00 0.03 0.00 66 1020.6
20260906031053 62 217 2.0 5.0 0.00 0.03 0.00 67 1020.7
20260906030551 62 290 1.0 7.0 0.00 0.03 0.00 70 1020.8
20260906030051 61 265 2.0 7.0 0.00 0.03 0.00 69 1020.8
20260906025549 61 244 1.0 5.0 0.00 0.03 0.00 69 1020.9
20260906025050 61 267 2.0 5.0 0.00 0.03 0.00 69 1021.0
20260906024546 61 278 1.0 4.0 0.00 0.03 0.00 68 1021.0
20260906024045 61 305 0.0 4.0 0.00 0.03 0.00 69 1021.0
20260906023545 60 215 1.0 4.0 0.00 0.03 0.00 69 1021.1
20260906023042 60 181 1.0 3.0 0.00 0.03 0.00 70 1021.1
20260906022543 60 248 1.0 6.0 0.00 0.03 0.00 70 1021.2
20260906022040 60 205 1.0 7.0 0.00 0.03 0.00 71 1021.3
20260906021046 59 199 1.0 7.0 0.00 0.03 0.00 71 1021.5
20260906020542 60 257 2.0 7.0 0.00 0.03 0.00 72 1021.5
20260906020041 59 219 2.0 7.0 0.00 0.03 0.00 72 1021.5
20260906015540 59 280 3.0 7.0 0.00 0.03 0.00 71 1021.6
20260906015041 59 298 2.0 4.0 0.00 0.03 0.00 72 1021.6
20260906014540 59 244 0.0 5.0 0.00 0.03 0.00 73 1021.6
20260906014038 59 186 2.0 6.0 0.00 0.03 0.00 73 1021.6
20260906013538 59 186 2.0 6.0 0.00 0.03 0.00 74 1021.6
20260906013056 59 207 0.0 3.0 0.00 0.03 0.00 74 1021.6
20260906012536 59 213 1.0 3.0 0.00 0.03 0.00 74 1021.6
20260906012036 58 201 0.0 3.0 0.00 0.03 0.00 74 1021.6
20260906011032 58 205 1.0 4.0 0.00 0.03 0.00 74 1021.6
20260906010532 58 207 1.0 4.0 0.00 0.03 0.00 74 1021.7
20260906010032 58 241 1.0 4.0 0.00 0.04 0.00 74 1021.7
20260906005530 58 285 1.0 5.0 0.00 0.04 0.00 75 1021.6
20260906005030 58 232 2.0 5.0 0.00 0.04 0.00 75 1021.6
20260906004529 58 264 1.0 4.0 0.00 0.04 0.00 75 1021.5
20260906004027 57 207 1.0 4.0 0.00 0.04 0.00 76 1021.5
20260906003526 57 225 0.0 6.0 0.00 0.04 0.00 76 1021.5
20260906003025 57 192 1.0 6.0 0.00 0.04 0.00 77 1021.5
20260906002524 57 219 0.0 4.0 0.00 0.04 0.00 77 1021.4
20260906002023 57 213 2.0 4.0 0.00 0.04 0.00 77 1021.3
20260906001021 57 277 3.0 7.0 0.00 0.04 0.00 77 1021.3
20260906000520 57 159 2.0 6.0 0.00 0.04 0.00 77 1021.2
20260906000019 57 187 1.0 4.0 0.00 0.04 0.00 78 1021.2
20260905235518 56 221 1.0 9.0 0.00 0.04 0.00 78 1021.0
20260905235019 56 215 2.0 9.0 0.00 0.04 0.00 78 1021.0
20260905234516 56 199 2.0 7.0 0.00 0.04 0.00 78 1021.0
20260905234016 56 250 2.0 6.0 0.00 0.04 0.00 79 1021.0
20260905233517 56 236 3.0 7.0 0.00 0.04 0.00 79 1021.0
20260905233016 56 248 1.0 8.0 0.00 0.04 0.00 79 1021.0
20260905232515 56 279 3.0 8.0 0.00 0.04 0.00 79 1020.9
20260905232014 56 257 3.0 8.0 0.00 0.04 0.00 80 1020.8
20260905231011 56 277 4.0 8.0 0.00 0.04 0.00 82 1020.7
20260905230511 55 266 2.0 5.0 0.00 0.04 0.00 84 1020.6
20260905230014 54 268 2.0 7.0 0.00 0.04 0.00 84 1020.6
20260905225507 54 255 3.0 9.0 0.00 0.04 0.00 84 1020.6
20260905225007 54 243 1.0 4.0 0.00 0.04 0.00 84 1020.6
20260905224506 54 261 1.0 4.0 0.00 0.04 0.00 85 1020.6
20260905224005 53 245 2.0 7.0 0.00 0.04 0.00 85 1020.6
20260905223503 53 273 1.0 7.0 0.00 0.04 0.00 85 1020.5
20260905223002 53 261 2.0 6.0 0.00 0.04 0.00 86 1020.4
20260905222502 53 260 1.0 7.0 0.00 0.04 0.00 86 1020.3
20260905222059 53 257 2.0 8.0 0.00 0.04 0.00 86 1020.2
20260905221004 53 236 2.0 7.0 0.00 0.04 0.00 86 1019.9
20260905220502 52 254 0.0 5.0 0.00 0.04 0.00 86 1019.9
20260905220002 52 259 1.0 4.0 0.00 0.04 0.00 86 1019.8
20260905215501 52 248 0.0 4.0 0.00 0.04 0.00 87 1019.7
20260905215101 52 178 1.0 4.0 0.00 0.04 0.00 86 1019.7
20260905214604 52 225 0.0 3.0 0.00 0.04 0.00 86 1019.6
20260905214058 52 230 0.0 4.0 0.00 0.04 0.00 86 1019.6
20260905213558 52 276 1.0 6.0 0.00 0.04 0.00 87 1019.5
20260905213056 52 271 2.0 8.0 0.00 0.04 0.00 87 1019.4
20260905212555 52 263 2.0 8.0 0.00 0.04 0.00 87 1019.2
20260905212056 52 241 1.0 8.0 0.00 0.04 0.00 87 1019.3
20260905211053 51 263 2.0 10.0 0.00 0.04 0.00 87 1019.2
20260905210549 51 269 4.0 10.0 0.00 0.04 0.00 87 1019.1
20260905210057 51 260 2.0 6.0 0.00 0.04 0.00 87 1019.1
20260905205551 51 249 1.0 5.0 0.00 0.07 0.00 87 1018.9
20260905205047 51 261 1.0 4.0 0.00 0.07 0.00 87 1018.9
20260905204552 51 236 0.0 4.0 0.00 0.07 0.00 87 1018.8
20260905204045 51 269 1.0 4.0 0.00 0.07 0.00 87 1018.7
20260905203549 51 250 0.0 4.0 0.00 0.07 0.00 87 1018.7
20260905203102 51 249 1.0 8.0 0.00 0.07 0.00 87 1018.8
20260905202543 51 253 2.0 8.0 0.00 0.07 0.00 86 1018.7
20260905202047 50 257 2.0 7.0 0.00 0.07 0.00 86 1018.5
20260905201046 51 229 0.0 5.0 0.00 0.07 0.00 86 1018.4
20260905200547 51 248 2.0 5.0 0.00 0.07 0.00 86 1018.3
20260905200048 51 269 0.0 2.0 0.00 0.07 0.00 86 1018.3
20260905195546 51 274 1.0 7.0 0.00 0.10 0.00 86 1018.2
20260905195045 51 254 3.0 8.0 0.00 0.10 0.00 86 1018.2
20260905194544 51 266 2.0 8.0 0.00 0.10 0.00 86 1018.1
20260905194043 51 250 1.0 5.0 0.00 0.10 0.00 86 1018.0
20260905193543 51 287 1.0 7.0 0.00 0.10 0.00 86 1018.1
20260905193042 51 263 1.0 7.0 0.00 0.10 0.00 85 1018.1
20260905192542 51 254 2.0 5.0 0.00 0.10 0.00 85 1018.1
20260905192042 51 245 1.0 5.0 0.00 0.10 0.00 86 1018.0
20260905191033 51 265 2.0 7.0 0.00 0.10 0.00 86 1017.9
20260905190533 51 271 1.0 8.0 0.00 0.10 0.00 86 1017.8
20260905190033 51 261 1.0 5.0 0.00 0.13 0.00 86 1017.8
20260905185531 51 242 1.0 5.0 0.00 0.13 0.00 86 1017.8
20260905185031 51 245 0.0 3.0 0.00 0.13 0.00 86 1017.7
20260905184530 51 217 0.0 8.0 0.00 0.13 0.00 86 1017.6
20260905184028 51 261 1.0 9.0 0.00 0.13 0.00 86 1017.4
20260905183528 51 296 2.0 10.0 0.00 0.13 0.00 86 1017.4
20260905183027 51 296 1.0 8.0 0.00 0.13 0.00 86 1017.3
20260905182526 51 304 2.0 7.0 0.00 0.13 0.00 86 1017.2
20260905182026 51 264 3.0 7.0 0.00 0.13 0.00 86 1017.2
20260905181025 51 263 0.0 8.0 0.00 0.13 0.00 86 1016.9
20260905180525 51 264 2.0 8.0 0.00 0.13 0.00 86 1016.8
20260905180023 51 275 3.0 8.0 0.00 0.18 0.00 86 1016.7
20260905175524 51 257 2.0 10.0 0.00 0.18 0.00 86 1016.6
20260905175022 51 257 3.0 10.0 0.00 0.18 0.00 86 1016.6
20260905174523 52 262 3.0 12.0 0.00 0.18 0.00 86 1016.4
20260905174020 52 291 5.0 12.0 0.00 0.18 0.00 86 1016.3
20260905173520 52 267 3.0 10.0 0.00 0.18 0.00 86 1016.3
20260905173020 52 294 3.0 9.0 0.00 0.18 0.00 86 1016.3
20260905172519 52 267 3.0 9.0 0.00 0.18 0.00 86 1016.3
20260905172018 52 285 4.0 10.0 0.00 0.18 0.00 86 1016.2
20260905171018 52 276 4.0 10.0 0.00 0.18 0.00 86 1016.3
20260905170517 52 292 3.0 8.0 0.00 0.18 0.00 86 1016.2
20260905170022 52 239 2.0 8.0 0.00 0.20 0.00 86 1016.1
20260905165520 52 267 3.0 8.0 0.00 0.20 0.00 86 1015.9
20260905165020 52 279 2.0 8.0 0.00 0.20 0.00 86 1015.8
20260905164516 52 250 3.0 11.0 0.00 0.20 0.00 86 1015.8
20260905164015 52 228 3.0 11.0 0.00 0.20 0.00 86 1015.7
20260905163518 52 244 3.0 9.0 0.00 0.20 0.00 86 1015.7
20260905163015 52 310 1.0 10.0 0.00 0.20 0.00 86 1015.7
20260905162512 52 258 3.0 10.0 0.00 0.20 0.00 87 1015.6
20260905162013 52 245 3.0 8.0 0.00 0.20 0.00 87 1015.5
20260905161010 52 269 3.0 10.0 0.00 0.20 0.00 88 1015.5
20260905160510 52 242 5.0 10.0 0.00 0.20 0.00 88 1015.4
20260905160009 52 272 4.0 10.0 0.00 0.23 0.00 88 1015.3
20260905155512 52 268 2.0 10.0 0.00 0.23 0.00 88 1015.2
20260905155007 52 238 3.0 11.0 0.00 0.23 0.00 88 1015.2
20260905154506 52 273 3.0 13.0 0.00 0.23 0.00 88 1015.0
20260905154007 52 228 5.0 13.0 0.00 0.23 0.00 88 1014.8
20260905153505 52 259 6.0 13.0 0.00 0.23 0.00 88 1014.8
20260905153003 52 266 6.0 13.0 0.00 0.23 0.00 88 1014.7
20260905152502 52 280 3.0 8.0 0.00 0.23 0.00 88 1014.7
20260905152101 52 194 3.0 10.0 0.00 0.23 0.00 88 1014.6
20260905151702 52 281 1.0 9.0 0.00 0.23 0.00 88 1014.4
20260905151005 52 255 2.0 9.0 0.00 0.23 0.00 87 1014.3
20260905150501 52 253 3.0 8.0 0.00 0.23 0.00 87 1014.3
20260905150107 52 257 2.0 8.0 0.00 0.23 0.00 87 1014.1
20260905145604 52 246 2.0 10.0 0.00 0.24 0.00 87 1014.2
20260905145058 52 269 4.0 8.0 0.00 0.24 0.00 87 1013.9
20260905144557 52 244 4.0 8.0 0.00 0.24 0.00 87 1013.8
20260905144058 52 249 3.0 13.0 0.00 0.24 0.00 86 1013.7
20260905143554 52 265 2.0 13.0 0.00 0.24 0.00 86 1013.6
20260905143103 52 275 3.0 11.0 0.00 0.24 0.00 86 1013.6
20260905142554 52 247 2.0 8.0 0.00 0.24 0.00 86 1013.4
20260905142052 52 226 2.0 10.0 0.00 0.24 0.00 86 1013.4
20260905141653 53 259 3.0 8.0 0.00 0.24 0.00 86 1013.4
20260905141051 53 268 3.0 10.0 0.00 0.24 0.00 86 1013.4
20260905140551 53 275 3.0 10.0 0.00 0.24 0.00 86 1013.3
20260905140050 53 264 1.0 10.0 0.00 0.24 0.00 85 1013.2
20260905135549 53 238 3.0 9.0 0.00 0.25 0.24 85 1013.1
20260905135048 53 263 5.0 10.0 0.00 0.25 0.24 85 1013.0
20260905134547 53 296 5.0 10.0 0.00 0.25 0.24 85 1012.8
20260905134046 53 268 2.0 10.0 0.00 0.25 0.24 85 1012.7
20260905133547 52 311 4.0 10.0 0.00 0.25 0.24 85 1012.6
20260905133045 52 276 2.0 8.0 0.00 0.25 0.24 85 1012.4
20260905132544 52 246 2.0 9.0 0.00 0.25 0.24 85 1012.3
20260905132044 52 209 1.0 9.0 0.00 0.25 0.24 85 1012.2
20260905131645 52 182 2.0 7.0 0.00 0.25 0.24 85 1012.1
20260905131040 52 288 2.0 7.0 0.00 0.25 0.24 85 1012.0
20260905130544 52 271 0.0 10.0 0.00 0.25 0.24 85 1012.0
20260905130040 52 263 3.0 10.0 0.00 0.25 0.24 85 1012.0
20260905125538 52 298 1.0 9.0 0.00 0.25 0.24 85 1011.8
20260905125038 52 301 2.0 9.0 0.00 0.25 0.24 84 1011.8
20260905124537 52 275 2.0 11.0 0.00 0.25 0.24 84 1011.7
20260905124037 52 273 5.0 11.0 0.00 0.25 0.24 83 1011.6
20260905123536 53 275 3.0 11.0 0.00 0.25 0.24 83 1011.4
20260905123039 53 273 3.0 11.0 0.00 0.25 0.24 82 1011.3
20260905122534 53 290 3.0 11.0 0.00 0.25 0.24 81 1011.4
20260905122035 53 233 2.0 11.0 0.00 0.25 0.24 81 1011.3
20260905121632 53 267 3.0 11.0 0.00 0.25 0.24 79 1011.1
20260905121035 53 314 5.0 11.0 0.00 0.25 0.24 79 1011.1
20260905120535 53 282 6.0 11.0 0.00 0.25 0.24 78 1011.0
20260905120039 53 325 3.0 12.0 0.00 0.26 0.24 77 1010.8
20260905115533 53 302 4.0 12.0 0.00 0.26 0.24 76 1010.7
20260905115033 53 323 4.0 13.0 0.00 0.26 0.24 76 1010.6
20260905114532 53 263 5.0 17.0 0.00 0.26 0.24 76 1010.5
20260905114031 53 251 8.0 17.0 0.00 0.26 0.24 76 1010.5
20260905113530 53 293 6.0 13.0 0.00 0.26 0.24 76 1010.3
20260905113029 53 253 6.0 14.0 0.00 0.26 0.24 75 1010.2
20260905112529 53 288 4.0 15.0 0.00 0.26 0.24 75 1010.2
20260905112035 53 299 6.0 15.0 0.00 0.26 0.24 75 1010.1
20260905111631 53 288 4.0 14.0 0.00 0.26 0.24 74 1010.0
20260905111032 53 250 5.0 14.0 0.00 0.26 0.24 74 1009.9
20260905110529 54 254 7.0 13.0 0.00 0.26 0.24 74 1010.0
20260905110030 54 268 6.0 13.0 0.00 0.26 0.24 74 1009.9
20260905105530 54 266 6.0 13.0 0.00 0.26 0.24 73 1009.9
20260905105029 54 290 7.0 14.0 0.00 0.26 0.24 73 1009.6
20260905104528 54 303 9.0 14.0 0.00 0.26 0.24 73 1009.6
20260905104030 54 305 6.0 12.0 0.00 0.26 0.24 73 1009.4
20260905103531 54 328 4.0 11.0 0.00 0.26 0.24 72 1009.2
20260905103028 54 263 6.0 15.0 0.00 0.26 0.24 72 1009.1
20260905102527 54 286 6.0 15.0 0.00 0.26 0.24 73 1009.1
20260905102028 54 284 6.0 17.0 0.00 0.26 0.24 72 1008.9
20260905101628 54 270 5.0 16.0 0.00 0.26 0.24 73 1008.8
20260905101023 54 258 5.0 16.0 0.00 0.26 0.24 73 1008.7
20260905100523 54 250 6.0 13.0 0.00 0.26 0.24 72 1008.7
20260905100024 54 266 6.0 13.0 0.00 0.26 0.24 72 1008.6
20260905095524 54 265 4.0 16.0 0.00 0.26 0.24 72 1008.4
20260905095024 54 264 9.0 18.0 0.00 0.26 0.24 72 1008.1
20260905094540 54 271 8.0 21.0 0.00 0.26 0.24 72 1007.9
20260905094021 54 287 9.0 21.0 0.00 0.26 0.24 72 1007.9
20260905093520 54 299 6.0 16.0 0.00 0.26 0.24 72 1007.8
20260905093020 54 309 6.0 13.0 0.00 0.26 0.24 71 1007.7